Mora, MN

10:56 AM CDT on June 28, 2017 (GMT -0500)
Mora Municipal

Weather History for KJMR - November, 2012

Change the Weather History Date:

Wednesday, November 14, 2012

  Actual Average Record
Temperature  
Mean Temperature 36 °F -  
Max Temperature 46 °F 38 °F 63 °F (1953)
Min Temperature 26 °F 19 °F -5 °F (2014)
Degree Days  
Heating Degree Days 29    
Moisture  
Dew Point 27 °F    
Average Humidity 73    
Maximum Humidity 93    
Minimum Humidity 50    
Precipitation  
Precipitation 0.00 in - - ()
Sea Level Pressure  
Sea Level Pressure 30.21 in    
Wind  
Wind Speed 2 mph (South)    
Max Wind Speed 10 mph    
Max Gust Speed -    
Visibility 10 miles    
Events      
Averages and records for this station are not official NWS values.
T = Trace of Precipitation, MM = Missing Value Source: NWS Daily Summary

Daily Weather History Graph

Daily Weather History Graph

Search for Another Location

Airport or City:

Trip Planner

Search our weather history database for the weather conditions in past years. The results will help you decide how hot, cold, wet, or windy it might be!

Date:

Astronomy

Nov. 14, 2012 Rise Set
Actual Time 7:12 AM CST 4:42 PM CST
Civil Twilight 6:40 AM CST 5:14 PM CST
Nautical Twilight 6:04 AM CST 5:50 PM CST
Astronomical Twilight 5:28 AM CST 6:25 PM CST
Moon 8:05 AM CST (11/14) 5:27 PM CST (11/14)
Length of Visible Light 10h 34m
Length of Day
9h 29m
New Moon, 1% of the Moon is Illuminated
Nov 14
New Moon
Nov 20
First Quarter
Nov 28
Full
Dec 6
Last Quarter
Dec 13
New

Hourly Weather History & Observations

Time (CST) Temp. Windchill Dew Point Humidity Pressure Visibility Wind Dir Wind Speed Gust Speed Precip Events Conditions
12:01 AM 33.8 °F 30.8 °F 26.6 °F 75% 30.26 in 10.0 mi SSE 3.5 mph - N/A   Overcast
12:21 AM 33.8 °F - 26.6 °F 75% 30.26 in 10.0 mi Calm Calm - N/A   Overcast
12:41 AM 33.8 °F 30.8 °F 26.6 °F 75% 30.26 in 10.0 mi SSE 3.5 mph - N/A   Overcast
1:01 AM 33.8 °F 30.8 °F 26.6 °F 75% 30.26 in 10.0 mi SSE 3.5 mph - N/A   Overcast
1:21 AM 33.8 °F - 26.6 °F 75% 30.26 in 10.0 mi Calm Calm - N/A   Overcast
1:41 AM 33.8 °F - 26.6 °F 75% 30.25 in 10.0 mi Calm Calm - N/A   Overcast
2:01 AM 33.8 °F - 26.6 °F 75% 30.26 in 10.0 mi Calm Calm - N/A   Overcast
2:19 AM 33.8 °F - 26.6 °F 75% 30.26 in 10.0 mi Calm Calm - N/A   Overcast
2:41 AM 33.8 °F - 26.6 °F 75% 30.26 in 10.0 mi Calm Calm - N/A   Overcast
3:01 AM 32.0 °F - 26.6 °F 80% 30.26 in 10.0 mi Calm Calm - N/A   Overcast
3:21 AM 33.8 °F - 28.4 °F 81% 30.26 in 10.0 mi Calm Calm - N/A   Overcast
3:41 AM 32.0 °F - 26.6 °F 80% 30.26 in 10.0 mi Calm Calm - N/A   Overcast
4:01 AM 32.0 °F - 26.6 °F 80% 30.26 in 10.0 mi Calm Calm - N/A   Overcast
4:21 AM 32.0 °F - 26.6 °F 80% 30.26 in 10.0 mi Calm Calm - N/A   Overcast
4:41 AM 32.0 °F - 26.6 °F 80% 30.25 in 10.0 mi Calm Calm - N/A   Overcast
5:01 AM 32.0 °F - 28.4 °F 87% 30.25 in 10.0 mi Calm Calm - N/A   Overcast
5:21 AM 33.8 °F - 26.6 °F 75% 30.25 in 10.0 mi Calm Calm - N/A   Overcast
5:41 AM 32.0 °F - 26.6 °F 80% 30.25 in 10.0 mi Calm Calm - N/A   Overcast
6:01 AM 32.0 °F - 26.6 °F 80% 30.26 in 10.0 mi Calm Calm - N/A   Overcast
6:21 AM 32.0 °F - 26.6 °F 80% 30.25 in 10.0 mi Calm Calm - N/A   Mostly Cloudy
6:41 AM 32.0 °F - 26.6 °F 80% 30.25 in 10.0 mi Calm Calm - N/A   Overcast
7:01 AM 32.0 °F - 26.6 °F 80% 30.25 in 10.0 mi Calm Calm - N/A   Overcast
7:21 AM 32.0 °F - 26.6 °F 80% 30.25 in 10.0 mi Calm Calm - N/A   Mostly Cloudy
7:41 AM 30.2 °F - 26.6 °F 86% 30.25 in 10.0 mi Calm Calm - N/A   Scattered Clouds
8:01 AM 32.0 °F - 28.4 °F 87% 30.25 in 10.0 mi Calm Calm - N/A   Scattered Clouds
8:21 AM 32.0 °F - 28.4 °F 87% 30.25 in 10.0 mi Calm Calm - N/A   Clear
8:41 AM 33.8 °F 29.6 °F 28.4 °F 81% 30.24 in 10.0 mi SSE 4.6 mph - N/A   Clear
9:01 AM 35.6 °F 30.7 °F 28.4 °F 75% 30.25 in 10.0 mi South 5.8 mph - N/A   Clear
9:21 AM 35.6 °F 30.7 °F 28.4 °F 75% 30.25 in 10.0 mi South 5.8 mph - N/A   Clear
9:41 AM 35.6 °F 31.7 °F 28.4 °F 75% 30.25 in 10.0 mi South 4.6 mph - N/A   Clear
10:01 AM 35.6 °F 31.7 °F 28.4 °F 75% 30.25 in 10.0 mi South 4.6 mph - N/A   Clear
10:21 AM 35.6 °F 31.7 °F 28.4 °F 75% 30.25 in 10.0 mi South 4.6 mph - N/A   Clear
10:41 AM 37.4 °F 33.8 °F 28.4 °F 70% 30.25 in 10.0 mi South 4.6 mph - N/A   Scattered Clouds
11:01 AM 37.4 °F 32.8 °F 28.4 °F 70% 30.24 in 10.0 mi South 5.8 mph - N/A   Clear
11:21 AM 41.0 °F 36.4 °F 30.2 °F 65% 30.24 in 10.0 mi South 6.9 mph - N/A   Clear
11:41 AM 41.0 °F 38.0 °F 28.4 °F 61% 30.23 in 10.0 mi South 4.6 mph - N/A   Scattered Clouds
12:01 PM 41.0 °F 37.1 °F 28.4 °F 61% 30.22 in 10.0 mi South 5.8 mph - N/A   Scattered Clouds
12:21 PM 42.8 °F 39.3 °F 30.2 °F 61% 30.22 in 10.0 mi SSE 5.8 mph - N/A   Clear
12:41 PM 44.6 °F 40.7 °F 30.2 °F 57% 30.21 in 10.0 mi South 6.9 mph - N/A   Clear
1:01 PM 44.6 °F 40.7 °F 28.4 °F 53% 30.21 in 10.0 mi South 6.9 mph - N/A   Clear
1:21 PM 46.4 °F 42.9 °F 28.4 °F 50% 30.20 in 10.0 mi SSW 6.9 mph - N/A   Clear
1:41 PM 44.6 °F 39.2 °F 28.4 °F 53% 30.20 in 10.0 mi SSW 10.4 mph - N/A   Clear
2:01 PM 46.4 °F 42.4 °F 28.4 °F 50% 30.20 in 10.0 mi South 8.1 mph - N/A   Clear
2:21 PM 46.4 °F 41.9 °F 28.4 °F 50% 30.19 in 10.0 mi SW 9.2 mph - N/A   Clear
2:41 PM 46.4 °F 41.9 °F 30.2 °F 53% 30.19 in 10.0 mi South 9.2 mph - N/A   Clear
3:01 PM 44.6 °F 40.2 °F 28.4 °F 53% 30.18 in 10.0 mi South 8.1 mph - N/A   Clear
3:21 PM 46.4 °F 42.9 °F 28.4 °F 50% 30.18 in 10.0 mi SSW 6.9 mph - N/A   Clear
3:41 PM 46.4 °F 42.9 °F 28.4 °F 50% 30.18 in 10.0 mi SW 6.9 mph - N/A   Clear
4:01 PM 44.6 °F 40.7 °F 28.4 °F 53% 30.18 in 10.0 mi SSW 6.9 mph - N/A   Clear
4:21 PM 44.6 °F 41.4 °F 28.4 °F 53% 30.17 in 10.0 mi South 5.8 mph - N/A   Clear
4:41 PM 44.6 °F 41.4 °F 30.2 °F 57% 30.17 in 10.0 mi SSW 5.8 mph - N/A   Clear
5:01 PM 41.0 °F 39.0 °F 28.4 °F 61% 30.17 in 10.0 mi South 3.5 mph - N/A   Clear
5:21 PM 42.8 °F 41.1 °F 28.4 °F 57% 30.17 in 10.0 mi South 3.5 mph - N/A   Clear
5:41 PM 41.0 °F 39.0 °F 28.4 °F 61% 30.17 in 10.0 mi SSE 3.5 mph - N/A   Clear
6:01 PM 37.4 °F 34.9 °F 26.6 °F 65% 30.17 in 10.0 mi SSE 3.5 mph - N/A   Clear
6:21 PM 37.4 °F - 26.6 °F 65% 30.17 in 10.0 mi Calm Calm - N/A   Clear
6:41 PM 33.8 °F - 26.6 °F 75% 30.17 in 10.0 mi Calm Calm - N/A   Clear
7:01 PM 32.0 °F - 26.6 °F 80% 30.17 in 10.0 mi Calm Calm - N/A   Clear
7:21 PM 32.0 °F - 26.6 °F 80% 30.17 in 10.0 mi Calm Calm - N/A   Clear
7:41 PM 32.0 °F - 26.6 °F 80% 30.17 in 10.0 mi Calm Calm - N/A   Clear
8:01 PM 30.2 °F - 24.8 °F 80% 30.17 in 10.0 mi Calm Calm - N/A   Clear
8:41 PM 28.4 °F - 24.8 °F 86% 30.16 in 10.0 mi Calm Calm - N/A   Clear
9:01 PM 28.4 °F - 24.8 °F 86% 30.16 in 10.0 mi Calm Calm - N/A   Clear
9:20 PM 28.4 °F - 24.8 °F 86% 30.16 in 10.0 mi Calm Calm - N/A   Clear
9:41 PM 28.4 °F - 24.8 °F 86% 30.16 in 10.0 mi Calm Calm - N/A   Clear
10:01 PM 28.4 °F - 24.8 °F 86% 30.15 in 10.0 mi Calm Calm - N/A   Clear
10:21 PM 26.6 °F - 24.8 °F 93% 30.15 in 7.0 mi Calm Calm - N/A   Clear
10:41 PM 26.6 °F - 24.8 °F 93% 30.15 in 7.0 mi Calm Calm - N/A   Clear
11:01 PM 26.6 °F - 24.8 °F 93% 30.14 in 10.0 mi Calm Calm - N/A   Clear
11:10 PM 26.6 °F - 24.8 °F 93% 30.14 in 10.0 mi Calm Calm - N/A   Clear
11:44 PM 26.6 °F - 24.8 °F 93% 30.14 in 10.0 mi Calm Calm - N/A   Mostly Cloudy